TAM3304 SBGR-SBNF

Flight info

Callsign TAM3304
Flight time 0h 49m
Altitude 32000
Route MADNI UZ92 PUBIS
Aircraft A320/M-SDE3FGHIRWY/LB1

Departure

Time 2026-04-23 20:11
Airport São Paulo/Guarulhos–Governor André Franco Montoro International Airport (SBGR)

Arrival

Time 2026-04-23 21:00
Airport Ministro Victor Konder International Airport (SBNF)
Time Latitude Longitude Altitude Speed Heading
2026-04-23 19:44 -23.42795 -46.48064 2469 ft 0 kts 85°
2026-04-23 19:48 -23.42795 -46.48065 2469 ft 0 kts 85°
2026-04-23 19:51 -23.42796 -46.48065 2469 ft 0 kts 85°
2026-04-23 19:51 -23.42795 -46.48065 2469 ft 0 kts 85°
2026-04-23 19:52 -23.42796 -46.48065 2469 ft 0 kts 85°
2026-04-23 19:52 -23.42795 -46.48065 2469 ft 0 kts 85°
2026-04-23 19:52 -23.42796 -46.48065 2469 ft 0 kts 85°
2026-04-23 20:04 -23.42796 -46.48086 2467 ft 4 kts 97°
2026-04-23 20:04 -23.42789 -46.48113 2469 ft 4 kts 126°
2026-04-23 20:04 -23.42770 -46.48132 2467 ft 4 kts 159°
2026-04-23 20:05 -23.42756 -46.48136 2465 ft 1 kts 174°
2026-04-23 20:05 -23.42755 -46.48137 2465 ft 0 kts 174°
2026-04-23 20:06 -23.42756 -46.48136 2465 ft 1 kts 174°
2026-04-23 20:07 -23.42802 -46.48132 2465 ft 12 kts 174°
2026-04-23 20:07 -23.42914 -46.48131 2465 ft 18 kts 191°
2026-04-23 20:07 -23.43037 -46.48131 2469 ft 18 kts 175°
2026-04-23 20:07 -23.43134 -46.48118 2470 ft 12 kts 164°
2026-04-23 20:08 -23.43210 -46.48093 2468 ft 10 kts 163°
2026-04-23 20:08 -23.43222 -46.48089 2469 ft 0 kts 163°
2026-04-23 20:09 -23.43280 -46.48070 2465 ft 19 kts 163°
2026-04-23 20:09 -23.43358 -46.48041 2465 ft 10 kts 144°
2026-04-23 20:09 -23.43336 -46.47998 2463 ft 7 kts 61°
2026-04-23 20:09 -23.43334 -46.47987 2463 ft 2 kts 75°
2026-04-23 20:10 -23.43319 -46.47927 2465 ft 34 kts 75°
2026-04-23 20:10 -23.43179 -46.47409 2463 ft 105 kts 75°
2026-04-23 20:10 -23.42918 -46.46445 2471 ft 158 kts 73°
2026-04-23 20:10 -23.42559 -46.45179 2768 ft 180 kts 76°
2026-04-23 20:11 -23.42159 -46.43868 3341 ft 186 kts 76°
2026-04-23 20:11 -23.41770 -46.42527 4081 ft 185 kts 76°
2026-04-23 20:11 -23.41368 -46.41099 4331 ft 211 kts 74°
2026-04-23 20:11 -23.40907 -46.39460 4653 ft 240 kts 74°
2026-04-23 20:12 -23.40385 -46.37645 5154 ft 262 kts 74°
2026-04-23 20:12 -23.40227 -46.35668 5973 ft 268 kts 95°
2026-04-23 20:12 -23.40751 -46.33676 6741 ft 275 kts 109°
2026-04-23 20:12 -23.41408 -46.31742 7697 ft 274 kts 109°
2026-04-23 20:13 -23.42082 -46.29761 8393 ft 283 kts 109°
2026-04-23 20:13 -23.42754 -46.27782 9361 ft 281 kts 111°
2026-04-23 20:13 -23.43876 -46.26027 10038 ft 291 kts 139°
2026-04-23 20:13 -23.45706 -46.25067 10677 ft 300 kts 169°
2026-04-23 20:14 -23.47823 -46.25167 11207 ft 315 kts 186°
2026-04-23 20:14 -23.50071 -46.25578 11459 ft 336 kts 188°
2026-04-23 20:14 -23.52343 -46.26280 12031 ft 346 kts 204°
2026-04-23 20:14 -23.54368 -46.27756 12618 ft 357 kts 222°
2026-04-23 20:15 -23.55924 -46.29873 13296 ft 362 kts 239°
2026-04-23 20:15 -23.56868 -46.32427 14011 ft 365 kts 256°
2026-04-23 20:15 -23.57432 -46.35138 14598 ft 370 kts 257°
2026-04-23 20:15 -23.57986 -46.37883 15192 ft 373 kts 257°
2026-04-23 20:16 -23.58535 -46.40653 15814 ft 375 kts 257°
2026-04-23 20:16 -23.59083 -46.43433 16457 ft 376 kts 257°
2026-04-23 20:16 -23.59631 -46.46211 17108 ft 377 kts 257°
2026-04-23 20:16 -23.60177 -46.48990 17730 ft 379 kts 257°
2026-04-23 20:17 -23.60732 -46.51811 18337 ft 382 kts 257°
2026-04-23 20:17 -23.61244 -46.54695 18897 ft 383 kts 259°
2026-04-23 20:17 -23.61676 -46.57523 19462 ft 383 kts 261°
2026-04-23 20:17 -23.62076 -46.60389 20058 ft 383 kts 261°
2026-04-23 20:18 -23.62487 -46.63255 20661 ft 382 kts 258°
2026-04-23 20:18 -23.63268 -46.66025 21206 ft 384 kts 247°
2026-04-23 20:18 -23.64536 -46.68595 21713 ft 387 kts 238°
2026-04-23 20:18 -23.65983 -46.71076 22236 ft 389 kts 238°
2026-04-23 20:19 -23.67440 -46.73565 22769 ft 390 kts 239°
2026-04-23 20:19 -23.69014 -46.75985 23284 ft 393 kts 231°
2026-04-23 20:19 -23.71014 -46.78039 23792 ft 398 kts 219°
2026-04-23 20:19 -23.73397 -46.79614 24187 ft 404 kts 207°
2026-04-23 20:20 -23.76071 -46.80619 24576 ft 411 kts 196°
2026-04-23 20:20 -23.78869 -46.81287 24966 ft 413 kts 196°
2026-04-23 20:20 -23.81679 -46.81951 25354 ft 414 kts 196°
2026-04-23 20:20 -23.84504 -46.82620 25736 ft 416 kts 196°
2026-04-23 20:21 -23.87335 -46.83294 26115 ft 418 kts 197°
2026-04-23 20:21 -23.90179 -46.83972 26485 ft 419 kts 197°
2026-04-23 20:21 -23.93031 -46.84652 26842 ft 421 kts 197°
2026-04-23 20:21 -23.95897 -46.85337 27200 ft 422 kts 197°
2026-04-23 20:22 -23.98771 -46.86027 27554 ft 424 kts 197°
2026-04-23 20:22 -24.01657 -46.86720 27908 ft 425 kts 197°
2026-04-23 20:22 -24.04552 -46.87411 28241 ft 427 kts 198°
2026-04-23 20:22 -24.07462 -46.88106 28578 ft 429 kts 198°
2026-04-23 20:23 -24.10383 -46.88802 28895 ft 431 kts 198°
2026-04-23 20:23 -24.13315 -46.89501 29229 ft 432 kts 198°
2026-04-23 20:23 -24.16258 -46.90205 29555 ft 433 kts 198°
2026-04-23 20:23 -24.19209 -46.90915 29872 ft 435 kts 198°
2026-04-23 20:24 -24.22168 -46.91628 30179 ft 436 kts 198°
2026-04-23 20:24 -24.25141 -46.92342 30433 ft 438 kts 198°
2026-04-23 20:24 -24.28123 -46.93057 30687 ft 439 kts 198°
2026-04-23 20:24 -24.31113 -46.93773 30931 ft 441 kts 198°
2026-04-23 20:25 -24.34075 -46.94484 31166 ft 442 kts 198°
2026-04-23 20:25 -24.37084 -46.95207 31403 ft 443 kts 198°
2026-04-23 20:25 -24.40101 -46.95932 31653 ft 444 kts 198°
2026-04-23 20:25 -24.43116 -46.96654 31986 ft 443 kts 198°
2026-04-23 20:26 -24.46124 -46.97376 32092 ft 442 kts 198°
2026-04-23 20:26 -24.52127 -46.98820 32114 ft 441 kts 198°
2026-04-23 20:27 -24.58121 -47.00280 32115 ft 439 kts 201°
2026-04-23 20:27 -24.63612 -47.02919 32125 ft 427 kts 217°
2026-04-23 20:28 -24.68586 -47.06462 32114 ft 426 kts 217°
2026-04-23 20:28 -24.73568 -47.09984 32113 ft 425 kts 217°
2026-04-23 20:29 -24.78550 -47.13507 32114 ft 426 kts 217°
2026-04-23 20:29 -24.83518 -47.17050 32112 ft 426 kts 218°
2026-04-23 20:30 -24.88496 -47.20590 32112 ft 426 kts 218°
2026-04-23 20:30 -24.95969 -47.25907 32117 ft 426 kts 218°
2026-04-23 20:31 -25.00906 -47.29427 32116 ft 425 kts 218°
2026-04-23 20:31 -25.05877 -47.32967 32112 ft 425 kts 218°
2026-04-23 20:32 -25.10844 -47.36515 32119 ft 425 kts 218°
2026-04-23 20:32 -25.15807 -47.40071 32118 ft 426 kts 218°
2026-04-23 20:33 -25.20778 -47.43629 32118 ft 426 kts 218°
2026-04-23 20:33 -25.25744 -47.47189 32133 ft 426 kts 218°
2026-04-23 20:34 -25.30703 -47.50753 32122 ft 425 kts 218°
2026-04-23 20:34 -25.35663 -47.54311 32118 ft 425 kts 218°
2026-04-23 20:35 -25.40619 -47.57882 32121 ft 425 kts 218°
2026-04-23 20:35 -25.45547 -47.61428 32121 ft 425 kts 218°
2026-04-23 20:36 -25.50506 -47.65005 32118 ft 426 kts 218°
2026-04-23 20:36 -25.55468 -47.68584 32125 ft 426 kts 218°
2026-04-23 20:37 -25.60427 -47.72162 32040 ft 423 kts 218°
2026-04-23 20:37 -25.62858 -47.73911 31805 ft 411 kts 219°
2026-04-23 20:37 -25.65221 -47.75613 31563 ft 399 kts 219°
2026-04-23 20:38 -25.67520 -47.77269 31324 ft 390 kts 219°
2026-04-23 20:38 -25.69772 -47.78897 31093 ft 384 kts 219°
2026-04-23 20:38 -25.71999 -47.80515 30862 ft 382 kts 219°
2026-04-23 20:38 -25.74217 -47.82127 30627 ft 381 kts 219°
2026-04-23 20:39 -25.76432 -47.83737 30404 ft 380 kts 220°
2026-04-23 20:39 -25.78642 -47.85343 30174 ft 379 kts 220°
2026-04-23 20:39 -25.80849 -47.86946 29909 ft 378 kts 219°
2026-04-23 20:39 -25.83047 -47.88542 29640 ft 377 kts 219°
2026-04-23 20:40 -25.85235 -47.90133 29378 ft 376 kts 219°
2026-04-23 20:40 -25.87419 -47.91717 29128 ft 375 kts 219°
2026-04-23 20:40 -25.89596 -47.93296 28868 ft 373 kts 219°
2026-04-23 20:40 -25.91737 -47.94848 28622 ft 370 kts 219°
2026-04-23 20:41 -25.93876 -47.96398 28266 ft 365 kts 219°
2026-04-23 20:41 -25.95987 -47.97928 27862 ft 361 kts 219°
2026-04-23 20:41 -25.98078 -47.99447 27455 ft 357 kts 219°
2026-04-23 20:41 -26.00144 -48.00955 27059 ft 353 kts 219°
2026-04-23 20:42 -26.02189 -48.02449 26642 ft 351 kts 219°
2026-04-23 20:42 -26.04087 -48.04095 26232 ft 342 kts 228°
2026-04-23 20:42 -26.05792 -48.05921 25810 ft 339 kts 228°
2026-04-23 20:42 -26.07492 -48.07736 25381 ft 338 kts 228°
2026-04-23 20:43 -26.09185 -48.09534 24964 ft 336 kts 227°
2026-04-23 20:43 -26.10875 -48.11325 24517 ft 335 kts 227°
2026-04-23 20:43 -26.12557 -48.13114 24093 ft 334 kts 227°
2026-04-23 20:43 -26.14236 -48.14901 23643 ft 334 kts 227°
2026-04-23 20:44 -26.15909 -48.16687 23157 ft 333 kts 227°
2026-04-23 20:44 -26.17581 -48.18457 22720 ft 331 kts 224°
2026-04-23 20:44 -26.19444 -48.19969 22289 ft 332 kts 215°
2026-04-23 20:44 -26.21404 -48.21327 21850 ft 331 kts 215°
2026-04-23 20:45 -26.23358 -48.22685 21421 ft 330 kts 215°
2026-04-23 20:45 -26.25303 -48.24039 20998 ft 330 kts 215°
2026-04-23 20:45 -26.27245 -48.25391 20575 ft 329 kts 215°
2026-04-23 20:45 -26.29184 -48.26746 20155 ft 329 kts 215°
2026-04-23 20:46 -26.31120 -48.28101 19729 ft 329 kts 215°
2026-04-23 20:46 -26.33058 -48.29457 19320 ft 329 kts 214°
2026-04-23 20:46 -26.34997 -48.30816 18902 ft 330 kts 214°
2026-04-23 20:46 -26.36915 -48.32163 18489 ft 331 kts 214°
2026-04-23 20:47 -26.38866 -48.33529 18029 ft 331 kts 214°
2026-04-23 20:47 -26.40814 -48.34892 17624 ft 330 kts 214°
2026-04-23 20:47 -26.42757 -48.36252 17216 ft 329 kts 214°
2026-04-23 20:47 -26.44695 -48.37609 16815 ft 328 kts 213°
2026-04-23 20:48 -26.46627 -48.38962 16420 ft 328 kts 213°
2026-04-23 20:48 -26.48555 -48.40312 16026 ft 327 kts 213°
2026-04-23 20:48 -26.50481 -48.41663 15645 ft 327 kts 213°
2026-04-23 20:48 -26.52404 -48.43015 15255 ft 326 kts 213°
2026-04-23 20:49 -26.54324 -48.44365 14879 ft 326 kts 213°
2026-04-23 20:49 -26.56245 -48.45715 14490 ft 326 kts 213°
2026-04-23 20:49 -26.58167 -48.47068 14106 ft 326 kts 212°
2026-04-23 20:49 -26.60088 -48.48421 13695 ft 327 kts 213°
2026-04-23 20:50 -26.62008 -48.49771 13294 ft 326 kts 213°
2026-04-23 20:50 -26.63922 -48.51116 12903 ft 324 kts 212°
2026-04-23 20:50 -26.65828 -48.52454 12508 ft 323 kts 212°
2026-04-23 20:50 -26.67726 -48.53786 12118 ft 322 kts 212°
2026-04-23 20:51 -26.69530 -48.55246 11717 ft 320 kts 223°
2026-04-23 20:51 -26.70971 -48.57123 11321 ft 318 kts 236°
2026-04-23 20:51 -26.72211 -48.59167 10915 ft 317 kts 236°
2026-04-23 20:51 -26.73445 -48.61197 10630 ft 312 kts 236°
2026-04-23 20:52 -26.74651 -48.63174 10386 ft 305 kts 236°
2026-04-23 20:52 -26.75843 -48.65123 9907 ft 301 kts 236°
2026-04-23 20:52 -26.77006 -48.67023 9286 ft 297 kts 236°
2026-04-23 20:52 -26.78153 -48.68907 8775 ft 289 kts 235°
2026-04-23 20:53 -26.79284 -48.70761 8360 ft 289 kts 235°
2026-04-23 20:53 -26.80414 -48.72617 7950 ft 288 kts 235°
2026-04-23 20:53 -26.81541 -48.74472 7530 ft 289 kts 235°
2026-04-23 20:53 -26.82675 -48.76334 7094 ft 290 kts 235°
2026-04-23 20:54 -26.83816 -48.78204 6638 ft 292 kts 235°
2026-04-23 20:54 -26.84962 -48.80085 6163 ft 292 kts 235°
2026-04-23 20:54 -26.86090 -48.81941 5956 ft 286 kts 234°
2026-04-23 20:54 -26.87212 -48.83780 5339 ft 285 kts 232°
2026-04-23 20:55 -26.88639 -48.85252 4748 ft 275 kts 206°
2026-04-23 20:55 -26.90418 -48.85801 4266 ft 260 kts 178°
2026-04-23 20:55 -26.92129 -48.85430 3831 ft 244 kts 152°
2026-04-23 20:55 -26.93485 -48.84464 3763 ft 224 kts 144°
2026-04-23 20:56 -26.94752 -48.83504 3677 ft 215 kts 144°
2026-04-23 20:56 -26.95951 -48.82572 3563 ft 204 kts 137°
2026-04-23 20:56 -26.96705 -48.81309 3471 ft 194 kts 104°
2026-04-23 20:56 -26.96747 -48.79810 3239 ft 196 kts 74°
2026-04-23 20:57 -26.96104 -48.78464 2911 ft 198 kts 56°
2026-04-23 20:57 -26.95319 -48.77187 2595 ft 200 kts 56°
2026-04-23 20:57 -26.94532 -48.75906 2317 ft 197 kts 56°
2026-04-23 20:57 -26.93783 -48.74684 2015 ft 184 kts 55°
2026-04-23 20:58 -26.93089 -48.73550 1748 ft 168 kts 54°
2026-04-23 20:58 -26.92477 -48.72547 1549 ft 150 kts 55°
2026-04-23 20:58 -26.91913 -48.71622 1347 ft 138 kts 55°
2026-04-23 20:58 -26.91377 -48.70741 1145 ft 137 kts 56°
2026-04-23 20:59 -26.90840 -48.69862 974 ft 136 kts 56°
2026-04-23 20:59 -26.90304 -48.68980 769 ft 137 kts 58°
2026-04-23 20:59 -26.89790 -48.68102 546 ft 135 kts 58°
2026-04-23 20:59 -26.89265 -48.67235 396 ft 133 kts 54°
2026-04-23 21:00 -26.88733 -48.66394 193 ft 132 kts 57°
2026-04-23 21:00 -26.88218 -48.65555 37 ft 126 kts 55°
2026-04-23 21:00 -26.87799 -48.64864 30 ft 78 kts 56°
2026-04-23 21:00 -26.87585 -48.64510 31 ft 28 kts 56°
2026-04-23 21:01 -26.87518 -48.64406 31 ft 11 kts 352°
2026-04-23 21:01 -26.87535 -48.64447 31 ft 14 kts 219°
2026-04-23 21:01 -26.87619 -48.64566 31 ft 20 kts 236°
2026-04-23 21:01 -26.87669 -48.64649 32 ft 19 kts 236°
2026-04-23 21:02 -26.87740 -48.64764 32 ft 17 kts 235°
2026-04-23 21:02 -26.87808 -48.64872 30 ft 17 kts 235°
2026-04-23 21:02 -26.87869 -48.64974 30 ft 11 kts 236°
2026-04-23 21:02 -26.87923 -48.65000 30 ft 9 kts 153°
2026-04-23 21:03 -26.87969 -48.64969 29 ft 7 kts 157°
2026-04-23 21:03 -26.88005 -48.64956 29 ft 2 kts 149°
2026-04-23 21:03 -26.88022 -48.64943 29 ft 0 kts 145°